User: anonymous
Location: Stillwell
(40.4602°N, 82.0928°W)
Time: 02:15:44
(UTC-04:00)
Language:

Cosmos 2333 Rocket - Orbit

View from above orbital plane
View from above orbital plane
View from above satellite
View from above satellite

Ground track
Ground track

The orbit data is extracted from the following two-line orbital elements,

1 24298U 96051B   14232.18155287 -.00000129  00000-0 -43458-4 0  5241
2 24298 070.8633 077.1895 0018358 275.6809 222.9522 14.12467273926102
Epoch (UTC): 20 August 2014 04:21:26
Eccentricity: 0.0018358
inclination: 70.8633°
perigee height: 837 km
apogee height: 864 km
right ascension of ascending node: 77.1895°
argument of perigee: 275.6809°
revolutions per day: 14.12467273
mean anomaly at epoch: 222.9522°
orbit number at epoch: 92610

The dashed part of the orbit path shows where the satellite is in the earth's shadow,  

DLR